Minneapolis Flying Cloud, MN

2:15 AM CST on December 16, 2019 (GMT -0600)
Flying Cloud

Weather History for KFCM - August, 2019

Change the Weather History Date:

Friday, August 16, 2019

  Actual Average Record
Temperature  
Mean Temperature 70 °F -  
Max Temperature 80 °F 78 °F 93 °F (2003)
Min Temperature 62 °F 58 °F 54 °F (2002)
Cooling Degree Days 6    
Growing Degree Days 20 (Base 50)    
Moisture  
Dew Point 61 °F    
Average Humidity 81    
Maximum Humidity 93    
Minimum Humidity 52    
Precipitation  
Precipitation 0.60 in - - ()
Sea Level Pressure  
Sea Level Pressure 29.80 in    
Wind  
Wind Speed 8 mph (WSW)    
Max Wind Speed 13 mph    
Max Gust Speed 24 mph    
Visibility 8 miles    
Events Rain , Thunderstorm    
Averages and records for this station are not official NWS values.
T = Trace of Precipitation, MM = Missing Value Source: NWS Daily Summary

Daily Weather History Graph

Daily Weather History Graph

Search for Another Location

Airport or City:

Astronomy

Aug. 16, 2019 Rise Set
Actual Time 6:16 AM CDT 8:18 PM CDT
Civil Twilight 5:45 AM CDT 8:50 PM CDT
Nautical Twilight 5:06 AM CDT 9:29 PM CDT
Astronomical Twilight 4:22 AM CDT 10:11 PM CDT
Moon 9:16 PM CDT 7:09 AM CDT
Length of Visible Light 15h 05m
Length of Day
14h 01m
Full, 99% of the Moon is Illuminated
Aug 16
Full
Aug 23
Last Quarter
Aug 30
New
Sep 5
First Quarter
Sep 13
Full

Hourly Weather History & Observations

Time (CDT) Temp. Dew Point Humidity Pressure Visibility Wind Dir Wind Speed Gust Speed Precip Events Conditions
12:53 AM 66.9 °F 63.0 °F 87% 29.80 in 10.0 mi South 8.1 mph - 0.02 in   Scattered Clouds
1:25 AM 66.9 °F 63.0 °F 87% 29.80 in 10.0 mi South 10.4 mph - N/A Thunderstorm Mostly Cloudy
1:49 AM 66.2 °F 62.6 °F 88% 29.80 in 2.5 mi WSW 10.4 mph 18.4 mph 0.09 in Rain , Thunderstorm Thunderstorms and Rain
1:53 AM 64.9 °F 62.1 °F 90% 29.79 in 1.2 mi South 12.7 mph 24.2 mph 0.22 in Rain , Thunderstorm Heavy Thunderstorms and Rain
2:18 AM 64.9 °F 62.1 °F 90% 29.79 in 1.5 mi SW 9.2 mph 19.6 mph 0.18 in Rain , Thunderstorm Heavy Thunderstorms and Rain
2:27 AM 64.9 °F 62.1 °F 90% 29.78 in 1.5 mi SW 6.9 mph - 0.26 in Rain , Thunderstorm Heavy Rain
2:31 AM 64.0 °F 62.1 °F 93% 29.78 in 1.5 mi SW 8.1 mph - 0.32 in Rain Heavy Rain
2:36 AM 64.9 °F 63.0 °F 93% 29.77 in 1.5 mi SW 8.1 mph - 0.35 in Rain Heavy Rain
2:40 AM 64.9 °F 63.0 °F 93% 29.77 in 2.5 mi SSW 8.1 mph - 0.35 in Rain Light Rain
2:42 AM 64.9 °F 63.0 °F 93% 29.77 in 4.0 mi SSW 6.9 mph - 0.35 in Rain Light Rain
2:44 AM 64.9 °F 63.0 °F 93% 29.77 in 8.0 mi SSW 5.8 mph - 0.35 in   Overcast
2:53 AM 64.9 °F 63.0 °F 93% 29.76 in 10.0 mi SSW 6.9 mph - 0.35 in   Overcast
3:23 AM 64.9 °F 63.0 °F 93% 29.77 in 9.0 mi South 6.9 mph - N/A   Mostly Cloudy
3:53 AM 64.9 °F 62.1 °F 90% 29.75 in 10.0 mi SW 9.2 mph - N/A   Overcast
4:23 AM 64.0 °F 61.0 °F 90% 29.78 in 10.0 mi SW 11.5 mph 18.4 mph N/A   Overcast
4:53 AM 63.0 °F 61.0 °F 93% 29.77 in 8.0 mi WSW 8.1 mph - 0.01 in Rain Light Rain
5:53 AM 63.0 °F 60.1 °F 90% 29.78 in 10.0 mi SW 9.2 mph - 0.00 in Rain Light Rain
6:11 AM 63.0 °F 60.1 °F 90% 29.79 in 10.0 mi WSW 6.9 mph - 0.00 in   Overcast
6:37 AM 62.1 °F 60.1 °F 93% 29.80 in 10.0 mi WSW 6.9 mph - 0.00 in   Overcast
6:53 AM 62.1 °F 60.1 °F 93% 29.79 in 10.0 mi West 4.6 mph - 0.00 in   Overcast
7:53 AM 63.0 °F 60.1 °F 90% 29.81 in 10.0 mi WSW 5.8 mph - N/A   Mostly Cloudy
8:04 AM 63.0 °F 60.1 °F 90% 29.81 in 10.0 mi WSW 6.9 mph - N/A   Mostly Cloudy
8:29 AM 64.9 °F 61.0 °F 87% 29.82 in 10.0 mi West 6.9 mph - N/A   Mostly Cloudy
8:53 AM 64.9 °F 61.0 °F 87% 29.81 in 10.0 mi West 5.8 mph - N/A   Overcast
9:38 AM 68.0 °F 61.0 °F 78% 29.82 in 10.0 mi West 9.2 mph - N/A   Mostly Cloudy
9:53 AM 68.0 °F 61.0 °F 78% 29.82 in 10.0 mi West 8.1 mph - N/A   Overcast
10:53 AM 69.1 °F 61.0 °F 75% 29.84 in 10.0 mi West 8.1 mph - N/A   Overcast
10:58 AM 70.0 °F 61.0 °F 73% 29.84 in 10.0 mi West 6.9 mph - N/A   Mostly Cloudy
11:30 AM 73.0 °F 62.1 °F 68% 29.83 in 10.0 mi West 6.9 mph - N/A   Partly Cloudy
11:53 AM 72.0 °F 61.0 °F 68% 29.83 in 10.0 mi WSW 11.5 mph - N/A   Partly Cloudy
12:53 PM 75.0 °F 60.1 °F 60% 29.82 in 10.0 mi WNW 10.4 mph - N/A   Partly Cloudy
1:53 PM 77.0 °F 61.0 °F 58% 29.82 in 10.0 mi WNW 6.9 mph 16.1 mph N/A   Partly Cloudy
2:53 PM 78.1 °F 60.1 °F 54% 29.81 in 10.0 mi WNW 6.9 mph 17.3 mph N/A   Clear
3:53 PM 79.0 °F 60.1 °F 52% 29.81 in 10.0 mi WNW 9.2 mph - N/A   Partly Cloudy
4:53 PM 78.1 °F 60.1 °F 54% 29.80 in 10.0 mi West 9.2 mph - N/A   Partly Cloudy
5:53 PM 78.1 °F 60.1 °F 54% 29.80 in 10.0 mi West 6.9 mph - N/A   Clear
6:53 PM 77.0 °F 61.0 °F 58% 29.81 in 10.0 mi WSW 9.2 mph - N/A   Clear
7:53 PM 73.9 °F 62.1 °F 66% 29.81 in 10.0 mi SW 6.9 mph - N/A   Mostly Cloudy
8:53 PM 71.1 °F 62.1 °F 73% 29.82 in 10.0 mi WSW 5.8 mph - N/A   Clear
9:53 PM 69.1 °F 62.1 °F 78% 29.83 in 10.0 mi SW 3.5 mph - N/A   Clear
10:53 PM 68.0 °F 62.1 °F 81% 29.83 in 10.0 mi SW 4.6 mph - N/A   Clear
11:53 PM 66.9 °F 61.0 °F 81% 29.84 in 10.0 mi SW 4.6 mph - N/A   Clear